Find Starlink 32173

NORAD ID: 60586 Int'l Des: 2024-150 Owner: SPXS Country: US Constellation: starlink operational
LEOCIRCULAR

現在のビュー

3D地球を読み込み中...

About Starlink 32173

Starlink 32173 (NORAD 60586) is a starlink constellation satellite (v2 mini) launched Aug 20, 2024 by SPXS of US. It operates in LEO, CIRCULAR orbit with a mass of 730.00 kg.

次回通過

Passes for default location (London). Set your location on the main map for personalized predictions.

高度履歴

Loading altitude history...

軌道要素

1 60586U 24150D 26264.94210248 .00001262 00000-0 48505-4 0 9994
2 60586 53.1604 110.8332 0001429 89.1812 270.9354 15.34384018118152
Epoch: Sep 21, 2026 • Age: 22 hours

現在のステータス

高度 468.0 km
遠地点 / 近地点 N/A
速度 7.64 km/s
衛星直下点 51.86°N, 136.22°W
打ち上げ日 Aug 20, 2024
運用期間 2 years
タイプ internet

技術仕様

分類 Payload
質量 730.00 kg
乾燥質量 700.00 kg
長さ 0.30 m
スパン 29.00 m
形状 ? Box + pan
製造者 SPXS
バスタイプ Starlink V2M
フェーズステータス In Orbit
所有者/国 SPXS/US

Most Searched